Location: Newark
(48.6676°N, 6.1917°E)
Time: 15:10:03
(UTC+00:00)

N. Korean satellite - Pass Details

Date: 07 December 2019
Orbit: 454 x 508 km, 97.2° (Epoch: 17 January)

Event Time Altitude Azimuth Distance (km) Brightness Sun altitude
Rises 16:54:23 0° 180° (S) 2,602 10.6 -11.7°
Reaches altitude 10° 16:56:32 10° 187° (S) 1,722 9.7 -12.1°
Maximum altitude 17:00:07 45° 261° (W) 700 7.9 -12.6°
Drops below altitude 10° 17:03:42 10° 336° (NNW) 1,728 9.4 -13.2°
Sets 17:05:52 0° 342° (NNW) 2,612 10.3 -13.5°
